Location: Fairhaven
(34.9340°N, 89.7987°W)
Time: 01:13:01
(UTC+00:00)

Cosmos 2082 - Pass Details

Date: 13 February 2026
Orbit: 831 x 855 km, 71.0° (Epoch: 7 March)

Event Time Altitude Azimuth Distance (km) Brightness Sun altitude
Rises 12:18:03 0° 336° (NNW) 3,421 6.5 -6.6°
Reaches altitude 10° 12:20:31 10° 335° (NNW) 2,479 5.8 -6.1°
Maximum altitude 12:26:11 72° 251° (WSW) 886 3.7 -5.0°
Drops below altitude 10° 12:31:47 10° 168° (SSE) 2,449 6.5 -3.9°
Sets 12:34:13 0° 166° (SSE) 3,376 7.2 -3.4°
